Tracking 32964 objects as of 20-Jan-2026
HD Live streaming from Space Station
objects crossing your sky now

THOR ABLESTAR DEB

Track THOR ABLESTAR DEB now!
10-day predictions


NORAD ID: 643
Int'l Code: 1961-015GU
Perigee: 891.1 km
Apogee: 1,368.0 km
Inclination: 66.4 °
Period: 107.7 minutes
Semi major axis: 7500 km
RCS: 0.0691 m2 (small)
Launch date: June 29, 1961
Source: United States (US)
Launch site: AIR FORCE EASTERN TEST RANGE (AFETR)

Note: This is SATELLITE DEBRIS
Your satellite tracking list
Your tracking list is empty




NASA's NSSDC Master Catalog

Two Line Element Set (TLE):
1 00643U 61015GU  26020.15148841  .00001350  00000-0  20585-2 0  9999
2 00643  66.3708  33.2000 0317918 121.7931 241.4500 13.36481456 90215
Source of the keplerian elements: AFSPC